CAPE
18 33 2 10 0 1 14 0 0 0 0 12 119 247 311 286 261 263 246 213 305 262 242 268 289 441 624 678 719 795 751 754 814
30 45 31 18 0 0 22 0 48 31 0 4 63 211 246 265 271 247 245 233 198 186 144 244 209 220 459 534 635 801 740 756 730
4 6 5 26 36 15 25 42 64 50 42 43 40 98 172 237 261 229 217 220 225 187 37 39 178 170 345 450 600 650 687 753 820
3 27 63 40 40 46 39 67 87 67 62 52 39 77 104 126 186 214 220 260 247 231 87 59 123 113 150 330 290 611 679 779 733
1 23 73 88 76 89 82 94 110 154 111 77 87 56 100 104 145 171 207 235 242 180 120 30 2 0 52 184 281 583 649 636 957
0 14 64 100 102 94 114 140 170 206 209 179 113 96 111 117 125 145 167 225 235 201 216 8 0 0 0 44 205 540 564 461 554
41 34 39 140 123 122 128 155 143 201 244 299 227 214 202 202 205 207 231 241 282 295 273 180 0 0 112 38 64 329 468 517 525
161 94 102 56 65 79 109 148 137 167 221 402 307 271 299 285 256 263 301 298 274 318 253 271 170 87 63 243 231 205 259 298 259
184 226 170 182 94 155 158 210 236 373 540 559 437 282 328 321 255 250 323 455 410 305 368 358 262 231 192 355 237 246 174 130 160
172 304 290 249 121 118 181 165 248 245 296 383 375 437 393 390 315 329 312 360 479 370 472 459 137 50 108 157 212 200 184 139 118
24 83 134 201 192 195 172 185 157 125 157 156 206 248 321 275 241 278 188 211 270 269 265 238 126 71 97 82 77 103 90 4 62
114 123 92 155 76 117 191 166 151 143 147 101 90 167 186 158 155 73 116 148 149 136 163 141 144 70 73 64 68 46 31 67 50
132 88 125 152 160 125 165 167 125 174 203 124 102 64 26 35 100 121 94 149 150 104 124 109 72 78 75 102 86 4 66 75 39
70 43 55 35 49 53 136 246 337 237 157 67 126 30 47 91 150 95 67 99 91 84 84 72 63 89 96 97 59 47 68 80 54
33 30 23 97 85 108 164 271 389 385 232 29 6 3 106 142 94 103 107 86 41 52 51 77 102 99 129 100 88 86 78 87 75
1 1 28 71 79 114 120 146 204 257 314 219 227 134 187 89 69 77 78 27 27 75 87 113 120 125 116 108 142 131 82 22 16
1 0 4 5 8 12 37 13 29 263 262 262 251 215 141 44 160 52 67 55 67 100 72 98 125 86 119 87 61 39 67 45 32
0 0 1 2 5 7 6 13 7 8 108 180 124 154 177 178 136 130 80 70 89 88 148 140 185 115 110 133 76 17 24 33 16
0 0 5 11 6 5 4 7 2 3 12 73 50 53 82 105 156 177 137 92 108 106 138 165 120 115 64 113 124 84 64 31 1
0 5 9 1 5 5 7 15 2 0 0 3 28 46 62 79 68 131 103 76 32 54 96 44 29 10 44 85 49 62 69 16 12
CIN
-67 -125 -230 -95 -0 -16 -112 -13 -0 -0 -0 -85 -129 -46 -37 -39 -33 -36 -28 -51 -28 -19 -52 -30 -47 -31 -38 -47 -31 -12 -39 -34 -26
-97 -130 -8 -68 -0 -0 -101 -0 -45 -250 -0 -21 -171 -58 -41 -27 -20 -34 -47 -44 -38 -38 -75 -30 -30 -50 -128 -133 -104 -16 -17 -26 -13
-57 -102 -84 -227 -168 -119 -81 -130 -53 -183 -177 -142 -263 -117 -68 -52 -48 -53 -52 -59 -50 -30 -80 -162 -63 -52 -99 -51 -32 -27 -24 -14 -11
-16 -148 -78 -161 -196 -135 -104 -150 -73 -215 -181 -159 -91 -166 -114 -89 -69 -50 -60 -70 -59 -48 -38 -42 -42 -59 -80 -57 -46 -86 -85 -7 -7
-33 -140 -44 -31 -210 -209 -209 -352 -247 -286 -271 -196 -28 -40 -170 -142 -94 -73 -93 -69 -54 -53 -30 -68 -4 -0 -57 -29 -29 -28 -18 -88 -58
-18 -10 -109 -23 -52 -136 -197 -235 -321 -261 -324 -310 -273 -93 -19 -221 -181 -128 -115 -79 -38 -19 -27 -15 -0 -0 -0 -157 -30 -14 -21 -27 -35
-34 -70 -214 -44 -30 -39 -53 -42 -144 -276 -285 -318 -252 -291 -276 -249 -229 -204 -105 -72 -38 -23 -23 -19 -0 -0 -43 -81 -55 -9 -44 -32 -62
-100 -47 -206 -72 -40 -136 -97 -66 -39 -172 -251 -223 -215 -257 -231 -237 -245 -212 -93 -40 -37 -28 -26 -26 -16 -14 -48 -51 -58 -51 -57 -35 -32
-152 -85 -88 -172 -236 -202 -136 -105 -100 -123 -115 -136 -125 -110 -171 -173 -148 -208 -96 -51 -22 -29 -20 -17 -20 -10 -7 -22 -15 -22 -42 -54 -39
-168 -96 -107 -100 -130 -62 -119 -75 -70 -91 -103 -100 -92 -64 -74 -79 -69 -45 -62 -55 -34 -31 -20 -21 -53 -0 -52 -24 -17 -16 -30 -27 -39
-225 -196 -142 -105 -80 -94 -63 -95 -100 -89 -85 -59 -83 -57 -38 -20 -12 -31 -20 -67 -64 -52 -58 -50 -21 -2 -33 -2 -20 -19 -18 -0 -21
-215 -201 -215 -147 -152 -40 -41 -105 -139 -114 -95 -76 -53 -28 -12 -10 -0 -29 -6 -5 -34 -38 -22 -48 -20 -0 -0 -0 -0 -16 -37 -60 -51
-110 -164 -140 -142 -92 -88 -72 -62 -132 -101 -51 -48 -16 -71 -22 -9 -2 -0 -5 -22 -15 -26 -27 -26 -20 -16 -13 -0 -0 -0 -21 -7 -39
-198 -203 -61 -171 -240 -216 -202 -96 -71 -59 -59 -71 -44 -109 -55 -2 -0 -8 -26 -16 -11 -4 -7 -5 -27 -35 -6 -0 -0 -0 -4 -2 -7
-223 -195 -215 -280 -291 -220 -143 -63 -38 -28 -24 -93 -92 -102 -46 -1 -6 -7 -3 -1 -2 -2 -0 -2 -7 -22 -43 -12 -2 -1 -0 -0 -0
-122 -0 -261 -252 -210 -166 -144 -73 -30 -29 -8 -7 -3 -5 -0 -5 -47 -15 -13 -17 -109 -14 -0 -4 -4 -8 -26 -15 -3 -6 -2 -39 -33
-0 -0 -25 -134 -187 -138 -122 -102 -82 -0 -0 -0 -0 -0 -1 -12 -4 -41 -2 -3 -9 -3 -1 -0 -0 -0 -0 -2 -2 -0 -10 -24 -18
-0 -0 -1 -2 -52 -38 -0 -7 -3 -6 -1 -0 -7 -5 -0 -0 -1 -20 -20 -12 -1 -0 -0 -0 -0 -0 -0 -0 -0 -10 -27 -12 -0
-0 -0 -8 -0 -0 -0 -0 -7 -3 -12 -8 -7 -10 -0 -6 -0 -9 -23 -11 -0 -0 -0 -1 -0 -0 -1 -0 -0 -0 -1 -3 -2 -5
-0 -1 -0 -1 -1 -0 -3 -0 -1 -0 -0 -0 -9 -5 -0 -7 -11 -0 -5 -17 -21 -8 -0 -13 -19 -25 -17 -1 -1 -1 -3 -2 -25
Wind_Speed
nan nan nan nan nan nan nan nan nan nan nan nan 4 4 3 3 5 5 2 3 2 2 2 1 1 3 2 4 4 5 5 5 5
nan nan nan nan nan nan nan nan nan nan nan nan nan 4 7 6 8 7 3 3 4 4 5 4 2 1 1 2 3 4 3 3 4
nan nan nan nan nan nan nan nan nan nan nan nan nan nan 7 8 9 7 7 9 5 3 nan nan 7 6 5 3 3 3 4 2 4
nan nan nan nan nan nan nan nan nan nan nan nan nan nan 8 10 10 9 9 10 10 9 nan nan 9 11 9 4 3 4 3 3 3
nan nan nan nan nan nan nan nan 20 17 15 nan nan nan 14 13 14 14 14 12 12 15 14 nan nan nan nan 6 7 6 6 6 6
nan nan nan 34 36 nan 23 21 19 17 17 14 16 nan 18 17 16 17 16 18 16 17 17 nan nan nan nan nan 11 11 8 10 10
nan nan nan 27 26 25 22 25 23 23 18 18 19 22 22 19 19 19 19 20 21 19 20 22 nan nan 14 nan nan 12 13 14 15
17 nan 15 nan nan nan 22 28 26 31 28 30 22 18 16 19 20 24 26 24 24 27 24 23 23 nan nan 21 22 20 17 17 14
22 20 19 16 nan 21 28 30 41 38 34 30 27 26 22 23 23 26 24 29 27 27 24 27 25 24 25 27 31 28 23 18 19
25 23 27 29 15 28 23 21 25 30 28 28 32 29 31 26 19 13 17 26 34 34 33 33 28 nan 29 30 34 33 24 20 24
nan nan 22 23 25 32 27 24 32 31 32 32 33 34 30 29 26 27 33 33 29 39 42 34 32 nan nan nan nan 31 nan nan nan
32 30 nan 29 nan 30 28 24 24 35 30 35 nan 32 38 34 35 nan 41 30 32 34 31 32 39 nan nan nan nan nan nan nan nan
40 nan 29 29 26 24 33 22 22 34 34 35 38 nan nan nan 28 35 nan 30 33 39 39 37 nan nan nan 45 nan nan nan nan nan
nan nan nan nan nan nan 19 28 34 24 28 nan 42 nan nan nan 21 nan nan nan nan nan nan nan nan nan nan nan nan nan nan nan nan
nan nan nan nan nan 32 24 29 26 27 31 nan nan nan 33 31 nan 43 41 nan nan nan nan nan 40 nan 34 41 nan nan nan nan nan
nan nan nan nan nan 35 36 37 33 33 33 35 41 40 36 nan nan nan nan nan nan nan nan 40 33 29 33 43 36 29 nan nan nan
nan nan nan nan nan nan nan nan nan 37 35 34 38 43 40 nan 35 nan nan nan nan 23 nan nan 20 nan 23 nan nan nan nan nan nan
nan nan nan nan nan nan nan nan nan nan 39 42 44 46 46 46 37 42 nan nan nan nan 32 27 23 22 26 27 nan nan nan nan nan
nan nan nan nan nan nan nan nan nan nan nan nan nan nan nan 42 43 41 41 nan 41 45 46 36 35 41 nan 37 42 nan nan nan nan
nan nan nan nan nan nan nan nan nan nan nan nan nan nan nan nan nan 41 41 nan nan nan nan nan nan nan nan nan nan nan nan nan nan
Wind_Direction
nan nan nan nan nan nan nan nan nan nan nan nan 193 202 204 248 249 261 215 168 286 126 170 164 179 144 248 267 264 242 226 214 169
nan nan nan nan nan nan nan nan nan nan nan nan nan 235 223 238 265 274 270 258 196 181 239 209 150 59 290 287 283 300 276 245 207
nan nan nan nan nan nan nan nan nan nan nan nan nan nan 244 245 261 263 261 261 248 260 nan nan 285 302 269 224 247 279 305 245 234
nan nan nan nan nan nan nan nan nan nan nan nan nan nan 249 249 255 264 269 268 268 271 nan nan 284 293 268 232 253 250 277 279 267
nan nan nan nan nan nan nan nan 235 223 229 nan nan nan 244 253 256 261 267 267 273 280 276 nan nan nan nan 247 253 251 270 273 258
nan nan nan 203 204 nan 220 226 243 234 235 232 238 nan 254 249 252 260 262 267 263 269 275 nan nan nan nan nan 265 254 274 276 275
nan nan nan 208 207 211 219 225 225 235 224 230 241 247 253 258 257 260 266 270 274 266 267 268 nan nan 258 nan nan 254 266 273 273
238 nan 230 nan nan nan 232 227 218 229 221 228 240 230 253 247 249 251 266 259 263 263 261 261 265 nan nan 260 260 253 249 259 262
215 220 239 232 nan 222 223 229 228 218 223 229 230 227 238 240 254 264 265 263 266 260 266 268 263 261 258 260 257 253 250 245 251
238 224 218 219 260 218 220 232 243 225 231 231 236 230 239 235 253 248 269 279 269 261 271 267 265 nan 266 262 257 251 246 240 259
nan nan 234 232 252 227 219 215 225 240 232 246 235 222 220 235 236 253 257 268 271 271 255 264 251 nan nan nan nan 256 nan nan nan
258 253 nan 255 nan 242 245 266 255 236 240 247 nan 229 228 241 229 nan 247 260 263 260 249 258 252 nan nan nan nan nan nan nan nan
253 nan 262 263 258 262 254 261 241 226 223 236 240 nan nan nan 245 256 nan 257 246 252 240 247 nan nan nan 249 nan nan nan nan nan
nan nan nan nan nan nan 247 254 255 264 248 nan 241 nan nan nan 249 nan nan nan nan nan nan nan nan nan nan nan nan nan nan nan nan
nan nan nan nan nan 250 241 238 238 244 250 nan nan nan 265 283 nan 246 249 nan nan nan nan nan 246 nan 241 224 nan nan nan nan nan
nan nan nan nan nan 252 247 236 236 249 246 244 253 262 265 nan nan nan nan nan nan nan nan 252 237 240 246 234 230 236 nan nan nan
nan nan nan nan nan nan nan nan nan 248 254 255 273 273 269 nan 271 nan nan nan nan 251 nan nan 271 nan 289 nan nan nan nan nan nan
nan nan nan nan nan nan nan nan nan nan 255 265 274 280 276 271 264 269 nan nan nan nan 250 276 267 266 275 268 nan nan nan nan nan
nan nan nan nan nan nan nan nan nan nan nan nan nan nan nan 273 270 270 272 nan 269 258 273 272 275 276 nan 269 261 nan nan nan nan
nan nan nan nan nan nan nan nan nan nan nan nan nan nan nan nan nan 268 267 nan nan nan nan nan nan nan nan nan nan nan nan nan nan